Regional Weather Roundup
Issued by NWS Lake Charles, LA

Home | Current Version | Previous Version | Text Only | Print | Product List | Glossary On
Versions: 1 2 3 4 5 6 7 8 9 10 11 12 13 14 15 16 17 18 19 20 21 22 23 24 25 26 27 28
000
ASUS44 KLCH 290910
RWRLCH
REGIONAL WEATHER ROUNDUP
NATIONAL WEATHER SERVICE LAKE CHARLES LA
400 AM CDT WED MAR 29 2017

Note: "fair" indicates few or no clouds below 12,000 feet with no
significant weather and/or obstructions to visibility.


ACROSS SOUTHEAST TEXAS

CITY           SKY/WX    TMP DP  RH WIND       PRES   REMARKS
BEAUMONT       CLOUDY    74  67  78 S17G32    29.77R
BEAUMONT CITY  CLOUDY   N/A N/A N/A SE12G22   29.77F
ORANGE         CLOUDY    73  69  85 S13G22    29.80R
JASPER           N/A     74  67  80 SE7       29.79F
$$

ACROSS CENTRAL LOUISIANA

CITY           SKY/WX    TMP DP  RH WIND       PRES   REMARKS
LEESVILLE      CLOUDY    70 -35   1 SE10      29.79S
FULLERTON      CLOUDY    70  66  87 VRB6      29.78R
ALEXANDRIA INT CLOUDY    69  66  90 S6        29.82R
ESLER FIELD    CLOUDY    70  67  90 S7        29.83S
DERIDDER       CLOUDY    71  68  91 SE10      29.81F FOG
OAKDALE        CLOUDY    71  67  87 SE6       29.81R
OPELOUSAS      CLOUDY    70  66  86 MISG      29.81F
$$

ACROSS SOUTHWEST AND SOUTH CENTRAL LOUISIANA

CITY           SKY/WX    TMP DP  RH WIND       PRES   REMARKS
SULPHUR        CLOUDY    74  68  81 SE17G24   29.80S
LAKE CHARLES   CLOUDY    73  67  81 S15G23    29.79S
CHENNAULT INT  CLOUDY    71  67  88 SE14      29.79S
CAMERON PHI    PTSUNNY   73  70  88 S17G26    29.77S
DEQUINCY       CLOUDY    72  65  79 SE13G21   29.78F
JENNINGS       CLOUDY    70  67  90 SE9G21    29.79F
LAFAYETTE      MOCLDY    73  69  87 VRB6      29.81F
NEW IBERIA     CLOUDY    70  67  90 SE9       29.81F
ABBEVILLE      PTSUNNY   72  70  94 SE9G18    29.81S
PATTERSON      PTCLDY    70  68  93 SE9       29.82F
SALT POINT       N/A     70  67  90 SE14G21   29.78F
$$

SELECTED SITES ACROSS THE REGION

CITY           SKY/WX    TMP DP  RH WIND       PRES   REMARKS
HOUSTON BUSH   MOCLDY    75  66  73 S17G28    29.72S
HOUSTON HOBBY  CLOUDY    74  68  81 S15G25    29.72S
GALVESTON      MOCLDY    75  71  87 S20G28    29.74F
COLLEGE STAT   CLOUDY    74  67  78 SW12      29.82R
CONROE         CLOUDY    73  66  78 S16G28    29.73R
HUNTSVILLE     CLOUDY    74  64  71 S9        29.79R
LUFKIN         CLOUDY    72  65  78 SE10G18   29.73F
SHREVEPORT     MOCLDY    69  65  86 SE9       29.77F
MONROE         CLEAR     67  63  87 CALM      29.86S
NATCHEZ MS     NOT AVBL
BATON ROUGE    CLOUDY    68  67  96 E9        29.84F FOG
N.O. INTL ARPT PTCLDY    70  68  93 SE9       29.86F
SLIDELL        CLEAR     69  67  93 SE5       29.88F
$$

MARINE REPORTS

STATION/POSITION TIME  SKY/WX   TEMP    WIND        PRES    VSBY
                                AIR SEA DIR/SP/G
                 (UTC)          (F)     (DEG/KT/KT) (MB)    (MI)
BUOY 30 S HIGH I 0850            73 71  160/ 17/ 21 1006.7R
WVE H/P(F/S)=  6/ 7

SEA RIM ST PARK  0800            73     150/ 18/ 23 1008.4F
PORT ARTHUR      0848               74  150/ 12/ 20 1008.5R
SABINE PASS N    0848            73 76  150/ 17/ 26 1009.5R
TEXAS POINT      NOT AVBL
CALCASIEU PASS   0848            73 75  170/ 18/ 26   N/A
LK CHARLES BEACH 0848            72 72              1009.0F
MARSH ISLAND     0800            73                   N/A
FRESH WATER LOCK 0848            72 76  130/ 19/ 24 1008.7S
AMERADA PASS     0848            71 63  140/ 11/ 16 1009.4F
$$




USA.gov is the U.S. government's official web portal to all federal, state and local government web resources and services.